Location: Domachevo
(51.7500°N, 23.6000°E)
Time: 18:57:42
(UTC+02:00)

Genesis I - Visible Passes

Search period start: 17 January 2019 00:00
Search period end: 27 January 2019 00:00
Orbit: 476 x 550 km, 64.5° (Epoch: 16 January)

Date Brightness Start Highest point End Pass type
(mag) Time Alt. Az. Time Alt. Az. Time Alt. Az.
17 Jan 5.1 07:07:44 10° S 07:11:27 36° ESE 07:15:14 10° NE visible
18 Jan 5.0 06:51:10 10° S 06:54:53 36° ESE 06:58:40 10° NE visible
19 Jan 4.9 06:34:35 10° S 06:38:18 36° ESE 06:42:06 10° NE visible
20 Jan 4.9 06:18:01 10° S 06:21:45 36° ESE 06:25:32 10° NE visible
21 Jan 4.8 06:01:27 10° S 06:05:11 37° ESE 06:08:59 10° NE visible
21 Jan 3.8 07:38:56 10° WSW 07:42:49 40° NW 07:46:44 10° NE visible
22 Jan 4.7 05:45:50 16° S 05:48:36 37° ESE 05:52:25 10° NE visible
22 Jan 3.8 07:22:22 10° WSW 07:26:15 40° NW 07:30:10 10° NE visible
23 Jan 4.7 05:30:51 30° SSE 05:32:02 37° ESE 05:35:51 10° NE visible
23 Jan 3.8 07:05:51 10° WSW 07:09:41 40° NW 07:13:36 10° NE visible
24 Jan 4.6 05:15:34 37° ESE 05:15:34 37° ESE 05:19:17 10° NE visible
24 Jan 3.8 06:50:33 19° W 06:53:07 40° NW 06:57:01 10° NE visible
25 Jan 5.1 05:00:03 30° E 05:00:03 30° E 05:02:43 10° NE visible
25 Jan 3.8 06:35:01 28° W 06:36:33 40° NW 06:40:27 10° NE visible
26 Jan 5.7 04:44:23 22° ENE 04:44:23 22° ENE 04:46:08 10° NE visible
26 Jan 3.8 06:19:20 37° WNW 06:19:58 40° NW 06:23:53 10° NE visible
